This is the latest recevied weather packets stored in our database for station/object W5ADC. If no packets are shown the sender has not sent any weather packets the latest 10 day(s).
| Time | Temp. | Humidity | Pressure | Rain* | Wind** | Luminosity | Snow |
|---|---|---|---|---|---|---|---|
| 1777471911 | 15.56° C | 84% | 1011.7 hPa | 0 mm | - | 49 W/m² | - |
| 1777471608 | 15° C | 84% | 1011.9 hPa | 0 mm | - | 51 W/m² | - |
| 1777471305 | 15.56° C | 83% | 1011.8 hPa | 0 mm | - | 48 W/m² | - |
| 1777471001 | 15° C | 84% | 1012 hPa | 0 mm | - | 37 W/m² | - |
| 1777470698 | 15.56° C | 83% | 1012 hPa | 0 mm | - | 37 W/m² | - |
| 1777470394 | 15° C | 83% | 1011.8 hPa | 0 mm | - | 43 W/m² | - |
| 1777470091 | 15° C | 83% | 1011.6 hPa | 0 mm | - | 33 W/m² | - |
| 1777469787 | 15° C | 83% | 1011.7 hPa | 0 mm | - | 27 W/m² | - |
| 1777469482 | 15.56° C | 83% | 1011.8 hPa | 0 mm | - | 28 W/m² | - |
| 1777469177 | 15.56° C | 83% | 1011.9 hPa | 0 mm | - | 26 W/m² | - |
| 1777468871 | 15.56° C | 83% | 1011.8 hPa | 0 mm | - | 27 W/m² | - |
| 1777468569 | 15.56° C | 82% | 1011.8 hPa | 0 mm | - | 17 W/m² | - |
| 1777468265 | 15.56° C | 82% | 1011.5 hPa | 0 mm | - | 23 W/m² | - |
| 1777467961 | 15.56° C | 82% | 1011.6 hPa | 0 mm | - | 22 W/m² | - |
| 1777467657 | 15.56° C | 82% | 1011.6 hPa | 0 mm | - | 21 W/m² | - |
| 1777467353 | 15.56° C | 82% | 1011.3 hPa | 0 mm | - | 22 W/m² | - |
| 1777467049 | 15.56° C | 82% | 1011.4 hPa | 0 mm | - | 15 W/m² | - |
| 1777466746 | 15.56° C | 82% | 1011.5 hPa | 0 mm | - | 11 W/m² | - |
| 1777466444 | 15.56° C | 82% | 1011.6 hPa | 0 mm | - | 11 W/m² | - |
| 1777466139 | 15.56° C | 82% | 1011.4 hPa | 0 mm | - | 7 W/m² | - |
| 1777465836 | 15.56° C | 82% | 1011.3 hPa | 0 mm | - | 9 W/m² | - |
| 1777465532 | 15.56° C | 82% | 1010.9 hPa | 0 mm | - | 9 W/m² | - |
| 1777465227 | 15.56° C | 81% | 1010.7 hPa | 0 mm | - | 9 W/m² | - |
| 1777464922 | 15.56° C | 81% | 1010.5 hPa | 0 mm | - | 9 W/m² | - |
| 1777464617 | 15.56° C | 80% | 1010.4 hPa | 0 mm | - | 8 W/m² | - |
* Rain latest hour (hover to see other rain measurements)
** Current wind speed in m/s (hover to see current wind gust speed)